EDDVEDDW

Guest
Details From EDDV - Hannover
To EDDW - Bremen
Flight Number -
Tags Generated
Created
Modified
Stats Distance 47 nm / 86 km
Max Altitude 0 ft / 0 m
Waypoints 2
Social Downloads 4
Likes 0
Share VATSIM

Download

Looking for another format? Having issues loading an existing format? Contact us
Advertisement - Login to hide

Notes

Generated

Route

EDDV EDDW

ID Type Via Altitude Latitude Longitude Leg Dist Tot Dist Heading (true) Name
O EDDV APT - 0 ft / 0 m 52.46820˚ 9.64854˚ - 0 nm - -
O EDDW APT - 0 ft / 0 m 53.04257˚ 8.78424˚ 46 nm 46 nm 318° / 317° -

Altitude Profile

Advertisement - Login to hide

EDDV

Details ICAO EDDV (HAJ)
Name Hannover
Region Germany - Civil
Timezone Europe/Berlin (UTC+2.0)
Stats Elevation 183 ft / 56 m (AMSL)
Location 52.462095° 9.686794°
Runways 3
Magnetic Variation 2.741° E

METAR

EDDV 232050Z 06009KT CAVOK 18/05 Q1022 NOSIG

Decode

TAF

TAF EDDV 231700Z 2318/2418 06008KT CAVOK BECMG 2406/2408 09013KT TEMPO 2410/2418 09015G25KT

Decode

Departure Runways

ID Width Length Bearing (true) Bearing (mag) Surface Threshold Offset Overrun Length
09C 75 ft / 23 m 2,532 ft / 772 m 92.55° 89.81° Asphalt 213 ft / 65 m 0 ft / 0 m
09L 148 ft / 45 m 12,429 ft / 3,788 m 92.57° 89.83° Concrete 984 ft / 300 m 0 ft / 0 m
09R 148 ft / 45 m 7,653 ft / 2,333 m 92.60° 89.86° Concrete 0 ft / 0 m 0 ft / 0 m
27C 75 ft / 23 m 2,532 ft / 772 m 272.56° 269.82° Asphalt 541 ft / 165 m 0 ft / 0 m
27L 148 ft / 45 m 7,653 ft / 2,333 m 272.62° 269.88° Concrete 0 ft / 0 m 0 ft / 0 m
27R 148 ft / 45 m 12,429 ft / 3,788 m 272.61° 269.87° Concrete 984 ft / 300 m 0 ft / 0 m

EDDW

Details ICAO EDDW (BRE)
Name Bremen
Region Germany - Civil
Timezone Europe/Berlin (UTC+2.0)
Stats Elevation 14 ft / 4 m (AMSL)
Location 53.045715° 8.789003°
Runways 2
Magnetic Variation 2.465° E

METAR

EDDW 232050Z 05010KT CAVOK 19/08 Q1023 NOSIG

Decode

TAF

TAF EDDW 231700Z 2318/2418 06010KT CAVOK TEMPO 2410/2418 08015G25KT

Decode

Destination Runways

ID Width Length Bearing (true) Bearing (mag) Surface Threshold Offset Overrun Length
05 75 ft / 23 m 2,298 ft / 700 m 51.18° 48.71° Asphalt 0 ft / 0 m 0 ft / 0 m
09 151 ft / 46 m 8,616 ft / 2,626 m 87.78° 85.31° Asphalt 945 ft / 288 m 0 ft / 0 m
23 75 ft / 23 m 2,298 ft / 700 m 231.19° 228.72° Asphalt 0 ft / 0 m 0 ft / 0 m
27 151 ft / 46 m 8,616 ft / 2,626 m 267.82° 265.35° Asphalt 984 ft / 300 m 0 ft / 0 m

Approach Navaids

Runway Type Ident Frequency Range Bearing (true) Bearing (mag) Slope Elevation
09 Localiser IBRE 110.30 MHz 18 nm / 33 km 87.77° 85.30° - 13 ft / 4 m (AMSL)
09 Glidescope IBRE 110.30 MHz 10 nm / 19 km 87.80° 85.33° 3.00° 13 ft / 4 m (AMSL)
27 Localiser IBRW 110.90 MHz 18 nm / 33 km 267.87° 265.41° - 14 ft / 4 m (AMSL)
27 Glidescope IBRW 110.90 MHz 10 nm / 19 km 267.80° 265.33° 3.00° 14 ft / 4 m (AMSL)

Popular Alternatives